User: anonymous   Login
Location: Boiro
(42.6475°N, 8.8834°W)
Time: 00:32:28
(UTC+01:00)
Language:

Vanguard 1 - Orbit

View from above orbital plane
View from above orbital plane
View from above satellite
View from above satellite

Ground track
Ground track

The orbit data is extracted from the following two-line orbital elements,

1 00005U 58002B   21333.50145470  .00000091  00000-0  94131-4 0  9990
2 00005  34.2559  35.3902 1842746 217.6646 127.9692 10.84830317262822
Epoch (UTC): 29 November 2021 12:02:05
Eccentricity: 0.1842746
inclination: 34.2559°
perigee height: 653 km
apogee height: 3830 km
right ascension of ascending node: 35.3902°
argument of perigee: 217.6646°
revolutions per day: 10.84830317
mean anomaly at epoch: 127.9692°
orbit number at epoch: 26282

The dashed part of the orbit path shows where the satellite is in the earth's shadow,  

DLR